SL-16 DEB

Satellite information

Favourite Embed

Satellite Type and Status

DEBRISIN ORBIT

Key statistics

Satellite SL-16 DEB at a glance.

Uptime

10902

Days in orbit

Revolutions

≈ 13.7

Per day

Orbit

LEO

Low Earth Orbit

Inclination

71.0

Latest

Satellite identification and parameters

Extended collection of information and parameters for SL-16 DEB.

Object identification

Identified? True

Debris? True

Object name: SL-16 DEB

International designator: 1995-058D

Object number (NORAD): 23707

Object ID (CCSDS): 23707

Country: COMMONWEALTH OF INDEPENDENT STATES (CIS)

Current information (Y/N): Y

RCS size: SMALL

Orbital parameters

Period: 104.922 minutes

Inclination: 70.9975 deg

SMA: 7368.95 km

Apoapsis: 1141.538 km

Periapsis: 840.093 km

RAAN: 335.1574 deg

Eccentricy: 0.02045371

Argument of periapsis: 166.0419 deg

Mean anomaly: 218.9718 deg

Mean motion: 13.72442961 rev/day

Mean motion (dot): 0.00000163 rev/day2

B* drag term: 0.00019278028 1/REarth

Two-line elements (TLE)

Creation date: Sept. 3, 2025, 10:15 a.m.

Reference frame: TEME

Reference center: EARTH

Epoch: Sept. 3, 2025, 6:54 a.m. UTC

TLE line 0: 0 SL-16 DEB

TLE line 1: 1 23707U 95058D 25246.28813670 .00000163 00000-0 19278-3 0 9990

TLE line 2: 2 23707 70.9975 335.1574 0204537 166.0419 218.9718 13.72442961494006

Live tracking on map

Real-time ground track for satellite SL-16 DEB.

In-orbit conjunctions

A list of the most updated potential collisions computed for object SL-16 DEB.

Target Orbit TCA Probability of collision Miss distance Type
SL-16 DEB LEO 2024-11-08 08:27:10 0.0002303711 479.0 (m) DEBRIS

Associated space launch

Second generation ELING satellite

SL-16 DEB was lifted into orbit during the mission ‘Zenit-2 | Tselina-2 17’, on board a Zenit-2 space rocket.

The launch took place on Oct. 31, 1995, 8:19 p.m. from 45/1.

For more information about the launch, click the button.

Launch to space Zenit-2 | Tselina-2 17
Zenit-2 | Tselina-2 17

Agency: N/A

Status: Launch Successful

Launch date: Oct. 31, 1995, 8:19 p.m. UTC

Rocket: Zenit-2

Launch pad: 45/1

Location: Baikonur Cosmodrome, Republic of Kazakhstan

...

Latest news about this satellite

There are no fresh news available about this satellite. Check back as we update our databases every day.


Newsletter sign-up

Weekly statistics, charts and insights to help you stay on top of the space industry.